TimeCDT,TemperatureF,Dew PointF,Humidity,Sea Level PressureIn,VisibilityMPH,Wind Direction,Wind SpeedMPH,Gust SpeedMPH,PrecipitationIn,Events,Conditions,WindDirDegrees,DateUTC
12:15 AM,32.9,31.5,94,30.10,10.0,NW,6.9,-,N/A,,Clear,310,2013-10-18 05:15:00
12:35 AM,34.3,32.0,91,30.09,10.0,NW,8.1,-,N/A,,Clear,310,2013-10-18 05:35:00
12:55 AM,33.3,31.3,92,30.10,10.0,WNW,6.9,-,N/A,,Clear,300,2013-10-18 05:55:00
1:15 AM,32.9,31.1,93,30.10,10.0,WNW,4.6,-,N/A,,Clear,290,2013-10-18 06:15:00
1:35 AM,32.2,31.1,96,30.10,10.0,West,4.6,-,N/A,,Clear,270,2013-10-18 06:35:00
1:55 AM,31.5,29.8,94,30.10,10.0,West,6.9,-,N/A,,Clear,280,2013-10-18 06:55:00
2:15 AM,30.6,29.1,94,30.10,10.0,WNW,6.9,-,N/A,,Clear,300,2013-10-18 07:15:00
2:35 AM,30.7,29.1,94,30.11,10.0,West,4.6,-,N/A,,Clear,280,2013-10-18 07:35:00
2:55 AM,30.9,29.3,94,30.10,10.0,West,4.6,-,N/A,,Clear,260,2013-10-18 07:55:00
3:15 AM,29.8,28.4,94,30.11,10.0,West,4.6,-,N/A,,Clear,280,2013-10-18 08:15:00
3:35 AM,30.6,29.1,94,30.11,10.0,WNW,4.6,-,N/A,,Clear,290,2013-10-18 08:35:00
3:55 AM,30.7,29.1,94,30.11,10.0,WNW,5.8,-,N/A,,Clear,290,2013-10-18 08:55:00
4:15 AM,32.5,30.2,91,30.11,10.0,WNW,8.1,-,N/A,,Clear,300,2013-10-18 09:15:00
4:35 AM,33.3,30.4,89,30.11,10.0,WNW,6.9,-,N/A,,Clear,300,2013-10-18 09:35:00
4:55 AM,33.4,30.2,88,30.11,10.0,WNW,8.1,-,N/A,,Clear,300,2013-10-18 09:55:00
5:15 AM,33.4,30.2,88,30.09,10.0,NW,5.8,-,N/A,,Clear,320,2013-10-18 10:15:00
5:35 AM,33.3,30.4,89,30.10,10.0,NW,4.6,-,N/A,,Clear,320,2013-10-18 10:35:00
5:55 AM,33.4,30.7,90,30.11,10.0,NW,5.8,-,N/A,,Clear,310,2013-10-18 10:55:00
6:15 AM,33.8,30.7,89,30.11,10.0,WNW,6.9,-,N/A,,Clear,300,2013-10-18 11:15:00
6:35 AM,34.0,30.7,88,30.11,10.0,NW,5.8,-,N/A,,Mostly Cloudy,310,2013-10-18 11:35:00
6:55 AM,34.0,30.9,89,30.11,10.0,WNW,5.8,-,N/A,,Mostly Cloudy,300,2013-10-18 11:55:00
7:15 AM,34.0,31.1,89,30.11,10.0,WNW,3.5,-,N/A,,Mostly Cloudy,290,2013-10-18 12:15:00
7:35 AM,34.0,31.1,89,30.12,10.0,WNW,5.8,-,N/A,,Mostly Cloudy,300,2013-10-18 12:35:00
7:55 AM,34.2,30.7,87,30.13,10.0,WNW,5.8,-,N/A,,Scattered Clouds,290,2013-10-18 12:55:00
8:15 AM,34.2,30.9,88,30.12,10.0,NW,5.8,-,N/A,,Clear,310,2013-10-18 13:15:00
8:35 AM,34.3,30.7,87,30.13,10.0,WNW,5.8,-,N/A,,Clear,300,2013-10-18 13:35:00
8:55 AM,34.7,31.1,87,30.13,10.0,WNW,5.8,-,N/A,,Clear,300,2013-10-18 13:55:00
9:15 AM,35.8,30.9,82,30.13,10.0,NW,6.9,-,N/A,,Clear,320,2013-10-18 14:15:00
9:35 AM,36.5,31.3,81,30.13,10.0,NW,8.1,-,N/A,,Clear,320,2013-10-18 14:35:00
9:55 AM,37.6,31.1,77,30.14,10.0,NW,6.9,-,N/A,,Clear,320,2013-10-18 14:55:00
10:15 AM,38.7,31.3,75,30.15,10.0,NW,6.9,-,N/A,,Clear,310,2013-10-18 15:15:00
10:35 AM,40.1,31.5,71,30.15,10.0,NNW,5.8,-,N/A,,Clear,330,2013-10-18 15:35:00
10:55 AM,41.2,31.1,67,30.14,10.0,NW,5.8,-,N/A,,Clear,320,2013-10-18 15:55:00
10:57 AM,41.0,30.2,65,30.14,10.0,NW,5.8,-,N/A,,Clear,320,2013-10-18 15:57:00
11:15 AM,41.9,30.2,63,30.14,10.0,NNW,4.6,-,N/A,,Clear,330,2013-10-18 16:15:00
11:35 AM,43.2,30.6,61,30.13,10.0,NW,6.9,-,N/A,,Clear,320,2013-10-18 16:35:00
11:55 AM,43.3,28.8,56,30.13,10.0,NW,5.8,-,N/A,,Clear,320,2013-10-18 16:55:00
12:15 PM,44.6,28.9,54,30.14,10.0,WNW,4.6,-,N/A,,Clear,300,2013-10-18 17:15:00
12:35 PM,44.6,28.4,53,30.13,10.0,NW,6.9,-,N/A,,Clear,320,2013-10-18 17:35:00
12:55 PM,45.3,29.1,53,30.13,10.0,WNW,5.8,-,N/A,,Clear,300,2013-10-18 17:55:00
1:15 PM,45.7,28.6,51,30.12,10.0,WNW,5.8,-,N/A,,Clear,300,2013-10-18 18:15:00
1:17 PM,46.4,28.4,50,30.12,10.0,WNW,4.6,-,N/A,,Clear,300,2013-10-18 18:17:00
1:35 PM,46.4,28.6,50,30.11,10.0,NW,3.5,-,N/A,,Clear,320,2013-10-18 18:35:00
1:46 PM,46.4,26.6,46,30.11,10.0,Calm,Calm,-,N/A,,Clear,0,2013-10-18 18:46:00
1:55 PM,47.5,27.0,45,30.11,10.0,WNW,4.6,-,N/A,,Clear,290,2013-10-18 18:55:00
2:15 PM,47.8,25.0,41,30.09,10.0,West,3.5,-,N/A,,Clear,280,2013-10-18 19:15:00
2:35 PM,48.6,22.8,36,30.09,10.0,NW,4.6,-,N/A,,Clear,320,2013-10-18 19:35:00
2:55 PM,49.3,23.4,36,30.08,10.0,NW,8.1,-,N/A,,Clear,310,2013-10-18 19:55:00
3:15 PM,50.0,23.0,35,30.08,10.0,West,8.1,-,N/A,,Clear,270,2013-10-18 20:15:00
3:35 PM,50.2,23.5,35,30.07,10.0,WNW,4.6,-,N/A,,Clear,300,2013-10-18 20:35:00
3:55 PM,51.1,23.9,35,30.07,10.0,NW,9.2,-,N/A,,Clear,310,2013-10-18 20:55:00
4:15 PM,50.9,23.9,35,30.06,10.0,West,8.1,-,N/A,,Clear,270,2013-10-18 21:15:00
4:35 PM,51.3,24.3,35,30.06,10.0,WSW,6.9,-,N/A,,Clear,240,2013-10-18 21:35:00
4:55 PM,51.4,24.1,34,30.05,10.0,West,8.1,-,N/A,,Clear,270,2013-10-18 21:55:00
5:15 PM,51.3,24.1,35,30.04,10.0,West,10.4,-,N/A,,Clear,260,2013-10-18 22:15:00
5:35 PM,50.9,23.9,35,30.03,10.0,West,3.5,-,N/A,,Scattered Clouds,260,2013-10-18 22:35:00
5:55 PM,50.5,23.9,35,30.03,10.0,West,10.4,-,N/A,,Scattered Clouds,270,2013-10-18 22:55:00
6:15 PM,49.3,25.3,39,30.03,10.0,West,6.9,-,N/A,,Mostly Cloudy,270,2013-10-18 23:15:00
6:35 PM,46.9,26.8,45,30.04,10.0,West,4.6,-,N/A,,Overcast,270,2013-10-18 23:35:00
6:55 PM,45.7,27.9,50,30.05,10.0,WNW,5.8,-,N/A,,Overcast,290,2013-10-18 23:55:00
7:15 PM,44.8,29.1,54,30.05,10.0,WNW,6.9,-,N/A,,Overcast,290,2013-10-19 00:15:00
7:35 PM,44.1,29.1,56,30.05,10.0,WNW,6.9,-,N/A,,Mostly Cloudy,290,2013-10-19 00:35:00
7:55 PM,41.2,29.5,63,30.05,10.0,WNW,5.8,-,N/A,,Scattered Clouds,290,2013-10-19 00:55:00
8:15 PM,40.6,30.2,66,30.05,10.0,West,6.9,-,N/A,,Mostly Cloudy,280,2013-10-19 01:15:00
8:35 PM,40.8,30.6,67,30.04,10.0,West,6.9,-,N/A,,Scattered Clouds,260,2013-10-19 01:35:00
8:55 PM,36.7,30.0,77,30.04,10.0,West,5.8,-,N/A,,Scattered Clouds,270,2013-10-19 01:55:00
9:15 PM,36.0,31.1,82,30.04,10.0,West,5.8,-,N/A,,Clear,260,2013-10-19 02:15:00
9:35 PM,34.7,30.7,85,30.04,10.0,West,5.8,-,N/A,,Clear,270,2013-10-19 02:35:00
9:55 PM,33.8,30.0,86,30.04,10.0,West,6.9,-,N/A,,Clear,270,2013-10-19 02:55:00
10:15 PM,37.8,32.7,82,30.04,10.0,West,9.2,-,N/A,,Clear,270,2013-10-19 03:15:00
10:35 PM,36.5,32.4,85,30.04,10.0,West,6.9,-,N/A,,Clear,270,2013-10-19 03:35:00
10:55 PM,34.7,32.2,91,30.03,10.0,West,9.2,-,N/A,,Clear,280,2013-10-19 03:55:00
11:15 PM,36.3,33.6,90,30.03,10.0,West,9.2,-,N/A,,Clear,280,2013-10-19 04:15:00
11:35 PM,33.8,32.0,93,30.03,10.0,West,6.9,-,N/A,,Clear,280,2013-10-19 04:35:00
11:55 PM,32.9,32.0,96,30.03,10.0,West,6.9,-,N/A,,Clear,280,2013-10-19 04:55:00